Orbital Elements at Epoch 2459200.5 (2020-Dec-17.0) TDB
Reference: JPL 15 (heliocentric ecliptic J2000)
Element | Value | Uncertainty (1-sigma) | Units |
e | .1510688943632842 | 4.8474e-08 | |
a | 2.170393587891851 | 9.3566e-09 | au |
q | 1.842514628235867 | 1.0795e-07 | au |
i | 2.713848540939999 | 5.2549e-06 | deg |
node | 194.7187588889155 | 7.8164e-05 | deg |
peri | 175.3117786351792 | 8.1156e-05 | deg |
M | 224.5455096343622 | 1.8394e-05 | deg |
tp | 2459639.937463569265 (2022-Mar-01.43746357) | 6.0372e-05 | TDB |
period | 1167.901384870346 3.20 | 7.5523e-06 2.068e-08 | d yr |
n | .3082452034595071 | 1.9933e-09 | deg/d |
Q | 2.498272547547834 | 1.077e-08 | au |
|
| | Orbit Determination Parameters
Additional Information
|